Regional Weather Roundup
Issued by NWS Green Bay, WI

Home | Current Version | Previous Version | Graphics & Text | Print | Product List | Glossary Off
Versions: 1 2 3 4 5 6 7 8 9 10 11 12 13 14 15 16 17 18 19 20 21 22 23 24 25 26 27 28 29 30 31 32 33 34 35 36 37 38 39 40 41 42 43 44 45 46 47 48 49 50

359
ASUS43 KGRB 170200
RWRGRB

NORTH-CENTRAL AND NORTHEAST WISCONSIN REGIONAL WEATHER ROUNDUP
NATIONAL WEATHER SERVICE GREEN BAY WI
900 PM CDT MON OCT 16 2017

WIZ005-009-010>012-018-019-170300-
NORTH CENTRAL WISCONSIN

CITY           SKY/WX    TMP DP  RH WIND       PRES   REMARKS
IRONWOOD       CLEAR     52  34  50 SW15G22   29.94F
MANITOWISH WTR NOT AVBL
ARBOR VITAE    NOT AVBL
EAGLE RIVER    NOT AVBL
LAND O LAKES   NOT AVBL
RHINELANDER    CLEAR     48  35  60 SW9       30.03F
PHILLIPS       NOT AVBL
ANTIGO         NOT AVBL
TOMAHAWK       NOT AVBL
MERRILL        NOT AVBL
$$

WIZ013-073-170300-
NORTHEAST WISCONSIN

CITY           SKY/WX    TMP DP  RH WIND       PRES   REMARKS
IRON MOUNTAIN  CLEAR     47  34  60 S6        30.03S
MARINETTE      CLEAR     51  40  65 SW7       30.08F
$$

WIZ017-030-035>037-045-170300-
CENTRAL WISCONSIN

CITY           SKY/WX    TMP DP  RH WIND       PRES   REMARKS
MEDFORD        NOT AVBL
WAUSAU         CLEAR     49  38  65 S5        30.06F
MOSINEE        NOT AVBL
MARSHFIELD     CLEAR     46  35  65 S6        30.06F
WISC RAPIDS    CLEAR     48  38  68 S7        30.09F
STEVENS POINT  NOT AVBL
WAUPACA        NOT AVBL
SHAWANO        NOT AVBL
CLINTONVILLE   NOT AVBL
WAUTOMA        CLEAR     47  38  71 S3        30.11F
$$

WIZ038-039-048-051-170300-
FOX VALLEY

CITY           SKY/WX    TMP DP  RH WIND       PRES   REMARKS
NWS GREEN BAY  CLEAR     48  42  80 S6        30.11F
APPLETON       PTCLDY    46  36  66 SW7       30.10F
OSHKOSH        CLEAR     44  38  79 S6        30.12F
FOND DU LAC    CLEAR     45  37  73 S6        30.13F
$$

WIZ022-050-052-170300-
EAST CENTRAL WISCONSIN

CITY           SKY/WX    TMP DP  RH WIND       PRES   REMARKS
EPHRAIM        NOT AVBL
WASHINGTON ISL NOT AVBL
STURGEON BAY   CLEAR     50  38  63 S10       30.10F
MANITOWOC      CLEAR     49  37  63 S6        30.14S
SHEBOYGAN      CLEAR     41  37  86 CALM      30.14F
$$

LMZ563-521-522-541>543-170300-
LAKESHORE

STATION/POSITION TIME  TEMP    WIND        PRES    VSBY  WAVE
                       AIR SEA DIR/SP/G                  HT/PER
                 (UTC) (F)     (DEG/KT/KT) (MB)    (MI)  (FT/S)
SHEBOYGAN LKSHOR 0100   54     210/  8/  9 1020.8F
KEWAUNEE LKSHORE 0130   53     200/  8/ 11 1019.0F
NORTHPORT PIER   0140   51     180/  4/  9 1018.3F
N MID LAKE BUOY  0050   56 60  210/ 19/ 23 1019.3F         4/ 5
S GREEN BAY BUOY 0130   56 58  200/ 16/ 19 1018.7F
SISTER BAY LKSHO 0119   52     200/ 11/ 14   N/A
MENOMINEE LKSHOR 0130   54     190/  8/ 10 1018.2F
$$




USA.gov is the U.S. government's official web portal to all federal, state and local government web resources and services.